Somerville, NJ

1:12 AM EST on December 11, 2019 (GMT -0500)
Somerset

Weather History for KSMQ - November, 2019

Change the Weather History Date:

Saturday, November 16, 2019

  Actual Average Record
Temperature  
Mean Temperature 35 °F -  
Max Temperature 42 °F 51 °F 77 °F (1993)
Min Temperature 28 °F 32 °F 12 °F (1933)
Degree Days  
Heating Degree Days 30    
Moisture  
Dew Point 8 °F    
Average Humidity 35    
Maximum Humidity 64    
Minimum Humidity 14    
Precipitation  
Precipitation 0.00 in - - ()
Sea Level Pressure  
Sea Level Pressure 30.40 in    
Wind  
Wind Speed 8 mph (NNE)    
Max Wind Speed 14 mph    
Max Gust Speed 23 mph    
Visibility 10 miles    
Events      
Averages and records for this station are not official NWS values.
T = Trace of Precipitation, MM = Missing Value Source: NWS Daily Summary

Daily Weather History Graph

Daily Weather History Graph

Search for Another Location

Airport or City:

Astronomy

Nov. 16, 2019 Rise Set
Actual Time 6:46 AM EST 4:40 PM EST
Civil Twilight 6:16 AM EST 5:09 PM EST
Nautical Twilight 5:43 AM EST 5:42 PM EST
Astronomical Twilight 5:11 AM EST 6:15 PM EST
Moon 8:09 PM EST (11/16) 10:38 AM EST (11/16)
Length of Visible Light 10h 52m
Length of Day
9h 54m
Waning Gibbous, 82% of the Moon is Illuminated
Nov 16
Waning Gibbous
Nov 19
Last Quarter
Nov 26
New
Dec 4
First Quarter
Dec 12
Full

Hourly Weather History & Observations

Time (EST) Temp. Windchill Dew Point Humidity Pressure Visibility Wind Dir Wind Speed Gust Speed Precip Events Conditions
12:53 AM 39.9 °F 33.4 °F 23.0 °F 51% 30.25 in 10.0 mi North 10.4 mph - N/A   Clear
1:53 AM 39.0 °F 32.8 °F 23.0 °F 53% 30.26 in 10.0 mi North 9.2 mph - N/A   Clear
2:53 AM 37.0 °F 34.5 °F 23.0 °F 57% 30.27 in 10.0 mi North 3.5 mph - N/A   Clear
3:53 AM 35.1 °F 31.0 °F 24.1 °F 64% 30.27 in 10.0 mi NNW 4.6 mph - N/A   Clear
4:53 AM 35.1 °F 31.0 °F 24.1 °F 64% 30.30 in 10.0 mi North 4.6 mph - N/A   Mostly Cloudy
5:53 AM 36.0 °F 30.3 °F 21.0 °F 55% 30.35 in 10.0 mi North 6.9 mph - N/A   Mostly Cloudy
6:53 AM 34.0 °F 25.0 °F 12.0 °F 40% 30.41 in 10.0 mi NNE 12.7 mph 20.7 mph N/A   Scattered Clouds
7:53 AM 33.1 °F 24.4 °F 3.9 °F 29% 30.44 in 10.0 mi NNE 11.5 mph - N/A   Clear
8:53 AM 35.1 °F 26.9 °F 5.0 °F 28% 30.45 in 10.0 mi NE 11.5 mph 21.9 mph N/A   Clear
9:53 AM 37.0 °F 29.3 °F 3.0 °F 24% 30.45 in 10.0 mi ENE 11.5 mph 20.7 mph N/A   Clear
10:53 AM 39.0 °F 31.0 °F -0.9 °F 19% 30.46 in 10.0 mi ENE 13.8 mph 23.0 mph N/A   Clear
11:53 AM 39.9 °F 32.9 °F -4.0 °F 16% 30.44 in 10.0 mi NE 11.5 mph 20.7 mph N/A   Clear
12:53 PM 41.0 °F 35.8 °F -2.9 °F 16% 30.43 in 10.0 mi ENE 8.1 mph 18.4 mph N/A   Clear
1:53 PM 42.1 °F 37.1 °F -2.0 °F 16% 30.41 in 10.0 mi NE 8.1 mph - N/A   Clear
2:53 PM 42.1 °F 37.1 °F -4.0 °F 14% 30.41 in 10.0 mi NNE 8.1 mph 17.3 mph N/A   Clear
3:53 PM 39.9 °F 35.1 °F -2.9 °F 16% 30.42 in 10.0 mi ENE 6.9 mph - N/A   Clear
4:53 PM 37.9 °F 32.7 °F -2.9 °F 18% 30.43 in 10.0 mi NE 6.9 mph - N/A   Clear
5:53 PM 33.1 °F 28.7 °F 3.9 °F 29% 30.43 in 10.0 mi North 4.6 mph - N/A   Clear
6:53 PM 30.0 °F 26.5 °F 6.1 °F 36% 30.45 in 10.0 mi NNE 3.5 mph - N/A   Clear
7:53 PM 30.0 °F 25.2 °F 6.1 °F 36% 30.46 in 10.0 mi North 4.6 mph - N/A   Clear
8:53 PM 30.9 °F 25.2 °F 6.1 °F 35% 30.45 in 10.0 mi NNE 5.8 mph - N/A   Clear
9:53 PM 28.9 °F 23.9 °F 8.1 °F 41% 30.43 in 10.0 mi NNE 4.6 mph - N/A   Clear
10:53 PM 30.0 °F 23.2 °F 6.1 °F 36% 30.43 in 10.0 mi NE 6.9 mph - N/A   Clear
11:53 PM 28.9 °F 21.1 °F 7.0 °F 40% 30.43 in 10.0 mi NE 8.1 mph - N/A   Clear